星链-2286 (STARLINK-2286 )

导读 | 豆包AI

STARLINK-2286是美国SpaceX公司星链(Starlink)星座中的一颗卫星,于北京时间2021年3月24日发射,属于SpaceX第23批星链组网卫星,搭乘猎鹰9号火箭从佛罗里达州卡纳维拉尔角太空军基地升空。星链星座旨在构建全球卫星互联网服务,该卫星入轨后为星座扩展和全球网络覆盖提供支持,推动星链低轨互联网星座的组网进程。

基本信息
目录编号:
48033
目录名称:
STARLINK-2286
国际标识:
2021-024BJ
轨道中心:
EARTH
卫星名称:
星链-2286
卫星全名:
星链-2286 (STARLINK-2286 )
卫星状态:
已陨落 最后检测时间 2025-04-14
发射日期:
2021-03-24 UTC
国别 :
美国 (US)
星等 :
--
轨道信息
数据来源 国际轨道数据
星历时间: 2025-04-14T14:06:28+0800
轨道信息已过期381天
半长轴: 6559.061km
偏心率: 0.0009188
轨道倾角: 53.033°
近地点辐角 253.371°
升交点赤经 343.467°
平近点角 212.058°
近地点: 174.899km
远地点: 186.953km
周期: 88.109分钟
每日圈数: 16.343321
详细信息
固有亮度:
5
最大亮度:
2.5
卫星平台:
Starlink V1.0
覆盖范围:
全球
运营商:
太空探索技术公司
运营商所在国:
美国
制造商(研发单位):
太空探索技术公司
制造商所在国:
美国
使用方式:
暂无
卫星简介
星链(Starlink)计划是由太空探索技术公司(SpaceX)提出的一个巨型低轨卫星互联网星座项目,计划在2019年至2024年间在太空搭建由约1.2万颗卫星组成的“星链”网络,其中1584颗将部署在地球上空550千米处的近地轨道,并从2020年开始工作。该卫星仍在工作。